TimeHST,TemperatureF,Dew PointF,Humidity,Sea Level PressureIn,VisibilityMPH,Wind Direction,Wind SpeedMPH,Gust SpeedMPH,PrecipitationIn,Events,Conditions,WindDirDegrees,DateUTC
12:54 AM,69.1,57.0,65,30.19,10.0,NNE,11.5,-,N/A,,Scattered Clouds,30,2013-03-04 10:54:00
1:54 AM,70.0,57.9,65,30.18,10.0,NE,8.1,-,N/A,,Overcast,40,2013-03-04 11:54:00
2:54 AM,70.0,59.0,68,30.17,10.0,NE,10.4,-,N/A,,Mostly Cloudy,50,2013-03-04 12:54:00
3:54 AM,71.1,57.9,63,30.17,10.0,NE,13.8,23.0,N/A,,Overcast,50,2013-03-04 13:54:00
4:54 AM,71.1,57.9,63,30.18,10.0,NE,15.0,20.7,N/A,,Mostly Cloudy,50,2013-03-04 14:54:00
5:54 AM,71.1,55.0,57,30.19,10.0,ENE,12.7,19.6,N/A,,Overcast,60,2013-03-04 15:54:00
6:54 AM,71.1,59.0,66,30.20,10.0,NE,17.3,27.6,N/A,,Scattered Clouds,50,2013-03-04 16:54:00
7:54 AM,71.1,57.9,63,30.21,10.0,NE,5.8,-,N/A,,Partly Cloudy,50,2013-03-04 17:54:00
8:54 AM,73.9,57.0,55,30.22,10.0,NE,12.7,21.9,N/A,,Partly Cloudy,50,2013-03-04 18:54:00
9:54 AM,75.9,57.9,54,30.21,10.0,NE,17.3,28.8,N/A,,Scattered Clouds,50,2013-03-04 19:54:00
10:54 AM,77.0,57.0,50,30.20,10.0,NE,17.3,28.8,N/A,,Partly Cloudy,50,2013-03-04 20:54:00
11:54 AM,77.0,60.1,56,30.18,10.0,ENE,21.9,29.9,N/A,,Partly Cloudy,70,2013-03-04 21:54:00
12:54 PM,79.0,55.9,45,30.15,10.0,NE,23.0,31.1,N/A,,Partly Cloudy,50,2013-03-04 22:54:00
1:54 PM,78.1,60.1,54,30.12,10.0,NE,21.9,29.9,N/A,,Partly Cloudy,50,2013-03-04 23:54:00
2:54 PM,78.1,57.9,50,30.11,10.0,NE,18.4,29.9,N/A,,Partly Cloudy,50,2013-03-05 00:54:00
4:54 PM,75.0,62.1,64,30.12,10.0,ENE,17.3,31.1,N/A,,Partly Cloudy,60,2013-03-05 02:54:00
5:54 PM,73.0,61.0,66,30.12,10.0,NE,18.4,26.5,N/A,,Partly Cloudy,40,2013-03-05 03:54:00
6:54 PM,71.1,61.0,70,30.14,10.0,NE,18.4,24.2,N/A,,Partly Cloudy,50,2013-03-05 04:54:00
7:54 PM,71.1,61.0,70,30.16,10.0,NE,17.3,23.0,N/A,,Partly Cloudy,40,2013-03-05 05:54:00
9:54 PM,71.1,57.9,63,30.19,10.0,NE,15.0,-,N/A,,Mostly Cloudy,50,2013-03-05 07:54:00
10:54 PM,71.1,57.9,63,30.18,10.0,NE,15.0,21.9,N/A,,Partly Cloudy,50,2013-03-05 08:54:00
11:54 PM,70.0,57.9,65,30.18,10.0,NE,12.7,-,N/A,,Mostly Cloudy,40,2013-03-05 09:54:00